Terminal Aerodrome Forecast
Issued by NWS Sterling, VA

Current Version | Previous Version | Graphics & Text | Print | Product List | Glossary On
Versions: 1 2 3 4 5 6 7 8 9 10 11 12 13 14 15 16 17 18 19 20 21 22 23 24 25
102
FTUS41 KLWX 311235 AAA
TAFDCA
TAF AMD
KDCA 311235Z 3113/0112 04005KT P6SM FEW140 SCT150
     FM312100 11005KT P6SM SCT250
     FM010900 VRB03KT 3SM BR SCT250=

USA.gov is the U.S. government's official web portal to all federal, state and local government web resources and services.